Location: Unspecified
(48.2082°N, 0.0000°E)
Time: 05:42:08
(UTC+00:00)

A-11 Canister half - Pass Details

Date: 23 August 2020
Orbit: 1514 x 1686 km, 47.2° (Epoch: 21 September)

Event Time Altitude Azimuth Distance (km) Brightness Sun altitude
Rises 22:10:16 0° 287° (WNW) 4,828 12.3 -25.8°
Reaches altitude 10° 22:15:00 10° 268° (W) 3,871 11.4 -26.2°
Maximum altitude 22:20:15 16° 235° (SW) 3,443 10.7 -26.6°
Enters shadow 22:23:45 13° 212° (SSW) 3,661 10.7 -26.9°
